Vernal, UT

1:55 AM MDT on August 22, 2019 (GMT -0600)
Vernal

Weather History for KVEL - July, 2019

Change the Weather History Date:

Monday, July 15, 2019

  Actual Average Record
Temperature  
Mean Temperature 78 °F 72 °F  
Max Temperature 94 °F 88 °F 100 °F (1939)
Min Temperature 62 °F 57 °F 41 °F (1932)
Degree Days  
Heating Degree Days 0 0  
Month to date heating degree days 0 2  
Since 1 June heating degree days 69 74  
Since 1 July heating degree days 0 2  
Cooling Degree Days 13 8  
Month to date cooling degree days 122 98  
Year to date cooling degree days 170 189  
Since 1 June cooling degree days 169 180  
Growing Degree Days 28 (Base 50)    
Moisture  
Dew Point 42 °F    
Average Humidity 35    
Maximum Humidity 56    
Minimum Humidity 13    
Precipitation  
Precipitation 0.00 in 0.02 in 0.47 in (1959)
Month to date precipitation T 0.27  
Year to date precipitation 7.72 4.48  
Sea Level Pressure  
Sea Level Pressure 29.86 in    
Wind  
Wind Speed 5 mph (WSW)    
Max Wind Speed 16 mph    
Max Gust Speed 21 mph    
Visibility 10 miles    
Events      
T = Trace of Precipitation, MM = Missing Value Source: NWS Daily Summary

Daily Weather History Graph

Daily Weather History Graph

Search for Another Location

Airport or City:

Astronomy

Jul. 15, 2019 Rise Set
Actual Time 6:00 AM MDT 8:47 PM MDT
Civil Twilight 5:28 AM MDT 9:19 PM MDT
Nautical Twilight 4:47 AM MDT 9:59 PM MDT
Astronomical Twilight 4:01 AM MDT 10:45 PM MDT
Moon 8:07 PM MDT (7/15) 4:50 AM MDT (7/15)
Length of Visible Light 15h 51m
Length of Day
14h 46m
Waxing Gibbous, 99% of the Moon is Illuminated
Jul 15
Waxing Gibbous
Jul 16
Full
Jul 24
Last Quarter
Jul 31
New
Aug 7
First Quarter

Hourly Weather History & Observations

Time (MDT) Temp. Dew Point Humidity Pressure Visibility Wind Dir Wind Speed Gust Speed Precip Events Conditions
12:53 AM 70.0 °F 44.1 °F 39% 29.88 in 10.0 mi WNW 8.1 mph - N/A   Clear
1:53 AM 69.1 °F 43.0 °F 39% 29.88 in 10.0 mi Calm Calm - N/A   Clear
2:53 AM 66.9 °F 45.0 °F 45% 29.87 in 10.0 mi West 3.5 mph - N/A   Partly Cloudy
3:53 AM 66.0 °F 46.9 °F 50% 29.88 in 10.0 mi WSW 4.6 mph - N/A   Scattered Clouds
4:53 AM 64.9 °F 46.0 °F 50% 29.88 in 10.0 mi West 5.8 mph - N/A   Clear
5:53 AM 64.9 °F 48.0 °F 54% 29.91 in 10.0 mi West 5.8 mph - N/A   Clear
6:53 AM 66.9 °F 46.9 °F 49% 29.92 in 10.0 mi West 4.6 mph - N/A   Clear
7:53 AM 71.1 °F 48.0 °F 44% 29.93 in 9.0 mi Calm Calm - N/A   Clear
8:53 AM 73.9 °F 48.0 °F 40% 29.94 in 10.0 mi Calm Calm - N/A   Clear
9:53 AM 79.0 °F 46.9 °F 32% 29.94 in 10.0 mi Variable 4.6 mph - N/A   Clear
10:53 AM 81.0 °F 44.1 °F 27% 29.93 in 10.0 mi SE 6.9 mph - N/A   Clear
11:53 AM 82.9 °F 46.0 °F 27% 29.92 in 10.0 mi SSE 3.5 mph - N/A   Clear
12:53 PM 88.0 °F 44.1 °F 22% 29.91 in 10.0 mi SE 11.5 mph - N/A   Clear
1:53 PM 90.0 °F 36.0 °F 15% 29.87 in 10.0 mi South 9.2 mph 17.3 mph N/A   Clear
2:53 PM 91.0 °F 35.1 °F 14% 29.85 in 10.0 mi SSW 9.2 mph - N/A   Clear
3:53 PM 91.9 °F 36.0 °F 14% 29.83 in 9.0 mi SSW 8.1 mph - N/A   Clear
4:53 PM 91.9 °F 33.1 °F 12% 29.80 in 10.0 mi Calm Calm - N/A   Clear
5:53 PM 91.0 °F 35.1 °F 14% 29.78 in 10.0 mi SSW 9.2 mph - N/A   Clear
6:53 PM 91.9 °F 37.0 °F 15% 29.76 in 10.0 mi SW 9.2 mph - N/A   Clear
7:53 PM 88.0 °F 35.1 °F 15% 29.76 in 10.0 mi West 5.8 mph - N/A   Clear
8:53 PM 79.0 °F 37.9 °F 23% 29.78 in 10.0 mi West 3.5 mph - N/A   Clear
9:53 PM 69.1 °F 44.1 °F 40% 29.81 in 10.0 mi West 3.5 mph - N/A   Clear
10:53 PM 66.0 °F 43.0 °F 43% 29.82 in 10.0 mi WNW 5.8 mph - N/A   Clear
11:53 PM 66.9 °F 41.0 °F 39% 29.81 in 10.0 mi West 3.5 mph - N/A   Clear